Starlink 32334

operational
NORAD ID: 62023 Int'l Des: 2024-213 Owner: SPXS Country: US Constellation: starlink
LEOCIRCULAR

关于 Starlink 32334

正在加载描述...

实时位置

正在加载3D地球...

即将过境

高度历史

Altitude vs Time

uPlot chart will show altitude changes over time

两行轨道根数

1 62023U 24213R 25354.49366742 .00021439 00000-0 73350-3 0 9995
2 62023 53.1597 175.6896 0001552 87.4325 272.6853 15.30216908 61037
Epoch: Dec 20, 2025 • Age: 11 hours

当前状态

高度 478.7 km
速度 7.63 km/s
星下点 44.10°N, 132.69°W
发射日期 Nov 18, 2024
运行时间 1 years
类型 internet

技术详情

分类 Payload
质量 730.00 kg
干质量 700.00 kg
总质量 730.00 kg
长度 0.30 m
直径 4.10 m
跨度 29.00 m
形状 Box + pan
制造商 SPXS
平台类型 Starlink V2M
阶段状态 In Orbit
所有者/国家 SPXS/US

大型星座

Loading constellations...